owner,sensor,date,latitude,longitude,vertical_datum,wind_speed,wind_to_direction,wind_speed_of_gust,qcFlag 
TCOON,ioos:station:TCOON:068:1,2013-12-01T00:00:00Z,27.2970,-97.4049,0.0,3.8,120.0,4.8,'11111222,11111222,11111222' 
TCOON,ioos:station:TCOON:068:1,2013-12-01T00:06:00Z,27.2970,-97.4049,0.0,3.5,117.0,4.4,'11111222,11111222,11111222' 
TCOON,ioos:station:TCOON:068:1,2013-12-01T00:12:00Z,27.2970,-97.4049,0.0,3.3,114.0,4.5,'11111222,11111222,11111222' 
TCOON,ioos:station:TCOON:068:1,2013-12-01T00:18:00Z,27.2970,-97.4049,0.0,3.5,115.0,4.5,'11111222,11111222,11111222' 
TCOON,ioos:station:TCOON:068:1,2013-12-01T00:24:00Z,27.2970,-97.4049,0.0,3.6,116.0,4.1,'11111222,11111222,11111222' 
TCOON,ioos:station:TCOON:068:1,2013-12-01T00:30:00Z,27.2970,-97.4049,0.0,3.6,114.0,4.2,'11111222,11111222,11111222' 
TCOON,ioos:station:TCOON:068:1,2013-12-01T00:36:00Z,27.2970,-97.4049,0.0,3.6,113.0,4.0,'11111222,11111222,11111222' 
TCOON,ioos:station:TCOON:068:1,2013-12-01T00:42:00Z,27.2970,-97.4049,0.0,3.4,117.0,3.9,'11111222,11111222,11111222' 
TCOON,ioos:station:TCOON:068:1,2013-12-01T00:48:00Z,27.2970,-97.4049,0.0,3.5,117.0,4.1,'11111222,11111222,11111222' 
TCOON,ioos:station:TCOON:068:1,2013-12-01T00:54:00Z,27.2970,-97.4049,0.0,3.3,122.0,4.5,'11111222,11111222,11111222' 
TCOON,ioos:station:TCOON:068:1,2013-12-01T01:00:00Z,27.2970,-97.4049,0.0,3.1,117.0,3.7,'11111222,11111222,11111222' 
TCOON,ioos:station:TCOON:068:1,2013-12-01T01:06:00Z,27.2970,-97.4049,0.0,3.2,115.0,3.9,'11111222,11111222,11111222' 
TCOON,ioos:station:TCOON:068:1,2013-12-01T01:12:00Z,27.2970,-97.4049,0.0,3.1,111.0,3.5,'11111222,11111222,11111222' 
TCOON,ioos:station:TCOON:068:1,2013-12-01T01:18:00Z,27.2970,-97.4049,0.0,2.7,109.0,3.2,'11111222,11111222,11111222' 
TCOON,ioos:station:TCOON:068:1,2013-12-01T01:24:00Z,27.2970,-97.4049,0.0,2.5,112.0,2.8,'11111222,11111222,11111222' 
TCOON,ioos:station:TCOON:068:1,2013-12-01T01:30:00Z,27.2970,-97.4049,0.0,2.5,110.0,2.7,'11111222,11111222,11111222' 
TCOON,ioos:station:TCOON:068:1,2013-12-01T01:36:00Z,27.2970,-97.4049,0.0,2.5,118.0,2.9,'11111222,11111222,11111222' 
TCOON,ioos:station:TCOON:068:1,2013-12-01T01:42:00Z,27.2970,-97.4049,0.0,2.3,103.0,2.7,'11111222,11111222,11111222' 
TCOON,ioos:station:TCOON:068:1,2013-12-01T01:48:00Z,27.2970,-97.4049,0.0,2.6,117.0,2.9,'11111222,11111222,11111222' 
TCOON,ioos:station:TCOON:068:1,2013-12-01T01:54:00Z,27.2970,-97.4049,0.0,2.8,126.0,3.3,'11111222,11111222,11111222' 
TCOON,ioos:station:TCOON:068:1,2013-12-01T02:00:00Z,27.2970,-97.4049,0.0,2.6,122.0,3.4,'11111222,11111222,11111222' 
TCOON,ioos:station:TCOON:068:1,2013-12-01T02:06:00Z,27.2970,-97.4049,0.0,3.0,119.0,3.3,'11111222,11111222,11111222' 
TCOON,ioos:station:TCOON:068:1,2013-12-01T02:12:00Z,27.2970,-97.4049,0.0,3.1,119.0,3.6,'11111222,11111222,11111222' 
TCOON,ioos:station:TCOON:068:1,2013-12-01T02:18:00Z,27.2970,-97.4049,0.0,3.2,120.0,3.7,'11111222,11111222,11111222' 
TCOON,ioos:station:TCOON:068:1,2013-12-01T02:24:00Z,27.2970,-97.4049,0.0,3.4,118.0,4.0,'11111222,11111222,11111222' 
TCOON,ioos:station:TCOON:068:1,2013-12-01T02:30:00Z,27.2970,-97.4049,0.0,2.9,117.0,3.6,'11111222,11111222,11111222' 
TCOON,ioos:station:TCOON:068:1,2013-12-01T02:36:00Z,27.2970,-97.4049,0.0,3.2,115.0,3.7,'11111222,11111222,11111222' 
TCOON,ioos:station:TCOON:068:1,2013-12-01T02:42:00Z,27.2970,-97.4049,0.0,3.0,121.0,3.7,'11111222,11111222,11111222' 
TCOON,ioos:station:TCOON:068:1,2013-12-01T02:48:00Z,27.2970,-97.4049,0.0,3.3,121.0,4.0,'11111222,11111222,11111222' 
TCOON,ioos:station:TCOON:068:1,2013-12-01T02:54:00Z,27.2970,-97.4049,0.0,3.4,126.0,4.0,'11111222,11111222,11111222' 
TCOON,ioos:station:TCOON:068:1,2013-12-01T03:00:00Z,27.2970,-97.4049,0.0,3.3,125.0,4.0,'11111222,11111222,11111222' 
TCOON,ioos:station:TCOON:068:1,2013-12-01T03:06:00Z,27.2970,-97.4049,0.0,3.4,128.0,4.0,'11111222,11111222,11111222' 
TCOON,ioos:station:TCOON:068:1,2013-12-01T03:12:00Z,27.2970,-97.4049,0.0,3.1,124.0,3.6,'11111222,11111222,11111222' 
TCOON,ioos:station:TCOON:068:1,2013-12-01T03:18:00Z,27.2970,-97.4049,0.0,3.1,123.0,3.9,'11111222,11111222,11111222' 
TCOON,ioos:station:TCOON:068:1,2013-12-01T03:24:00Z,27.2970,-97.4049,0.0,3.7,120.0,4.3,'11111222,11111222,11111222' 
TCOON,ioos:station:TCOON:068:1,2013-12-01T03:30:00Z,27.2970,-97.4049,0.0,3.5,121.0,4.2,'11111222,11111222,11111222' 
TCOON,ioos:station:TCOON:068:1,2013-12-01T03:36:00Z,27.2970,-97.4049,0.0,3.5,121.0,4.1,'11111222,11111222,11111222' 
TCOON,ioos:station:TCOON:068:1,2013-12-01T03:42:00Z,27.2970,-97.4049,0.0,3.8,119.0,4.6,'11111222,11111222,11111222' 
TCOON,ioos:station:TCOON:068:1,2013-12-01T03:48:00Z,27.2970,-97.4049,0.0,4.1,121.0,4.9,'11111222,11111222,11111222' 
TCOON,ioos:station:TCOON:068:1,2013-12-01T03:54:00Z,27.2970,-97.4049,0.0,4.0,123.0,4.6,'11111222,11111222,11111222' 
TCOON,ioos:station:TCOON:068:1,2013-12-01T04:00:00Z,27.2970,-97.4049,0.0,3.5,130.0,4.7,'11111222,11111222,11111222' 
TCOON,ioos:station:TCOON:068:1,2013-12-01T04:06:00Z,27.2970,-97.4049,0.0,3.1,137.0,4.1,'11111222,11111222,11111222' 
TCOON,ioos:station:TCOON:068:1,2013-12-01T04:12:00Z,27.2970,-97.4049,0.0,3.3,136.0,3.7,'11111222,11111222,11111222' 
TCOON,ioos:station:TCOON:068:1,2013-12-01T04:18:00Z,27.2970,-97.4049,0.0,3.9,147.0,4.5,'11111222,11111222,11111222' 
TCOON,ioos:station:TCOON:068:1,2013-12-01T04:24:00Z,27.2970,-97.4049,0.0,4.0,145.0,4.5,'11111222,11111222,11111222' 
TCOON,ioos:station:TCOON:068:1,2013-12-01T04:30:00Z,27.2970,-97.4049,0.0,3.6,148.0,4.4,'11111222,11111222,11111222' 
TCOON,ioos:station:TCOON:068:1,2013-12-01T04:36:00Z,27.2970,-97.4049,0.0,4.1,149.0,4.8,'11111222,11111222,11111222' 
TCOON,ioos:station:TCOON:068:1,2013-12-01T04:42:00Z,27.2970,-97.4049,0.0,3.7,150.0,4.8,'11111222,11111222,11111222' 
TCOON,ioos:station:TCOON:068:1,2013-12-01T04:48:00Z,27.2970,-97.4049,0.0,3.7,145.0,4.5,'11111222,11111222,11111222' 
TCOON,ioos:station:TCOON:068:1,2013-12-01T04:54:00Z,27.2970,-97.4049,0.0,4.0,144.0,4.6,'11111222,11111222,11111222' 
TCOON,ioos:station:TCOON:068:1,2013-12-01T05:00:00Z,27.2970,-97.4049,0.0,4.0,143.0,4.8,'11111222,11111222,11111222' 
TCOON,ioos:station:TCOON:068:1,2013-12-01T05:06:00Z,27.2970,-97.4049,0.0,4.3,147.0,4.9,'11111222,11111222,11111222' 
TCOON,ioos:station:TCOON:068:1,2013-12-01T05:12:00Z,27.2970,-97.4049,0.0,4.5,144.0,5.2,'11111222,11111222,11111222' 
TCOON,ioos:station:TCOON:068:1,2013-12-01T05:18:00Z,27.2970,-97.4049,0.0,4.3,142.0,5.2,'11111222,11111222,11111222' 
TCOON,ioos:station:TCOON:068:1,2013-12-01T05:24:00Z,27.2970,-97.4049,0.0,4.3,141.0,5.8,'11111222,11111222,11111222' 
TCOON,ioos:station:TCOON:068:1,2013-12-01T05:30:00Z,27.2970,-97.4049,0.0,4.6,138.0,5.8,'11111222,11111222,11111222' 
TCOON,ioos:station:TCOON:068:1,2013-12-01T05:36:00Z,27.2970,-97.4049,0.0,3.9,139.0,5.5,'11111222,11111222,11111222' 
TCOON,ioos:station:TCOON:068:1,2013-12-01T05:42:00Z,27.2970,-97.4049,0.0,3.2,130.0,4.2,'11111222,11111222,11111222' 
TCOON,ioos:station:TCOON:068:1,2013-12-01T05:48:00Z,27.2970,-97.4049,0.0,3.2,163.0,3.8,'11111222,11111222,11111222' 
TCOON,ioos:station:TCOON:068:1,2013-12-01T05:54:00Z,27.2970,-97.4049,0.0,3.0,170.0,3.6,'11111222,11111222,11111222' 
TCOON,ioos:station:TCOON:068:1,2013-12-01T06:00:00Z,27.2970,-97.4049,0.0,2.9,173.0,3.3,'11111222,11111222,11111222' 
TCOON,ioos:station:TCOON:068:1,2013-12-01T06:06:00Z,27.2970,-97.4049,0.0,2.4,188.0,3.1,'11111222,11111222,11111222' 
TCOON,ioos:station:TCOON:068:1,2013-12-01T06:12:00Z,27.2970,-97.4049,0.0,2.3,182.0,3.0,'11111222,11111222,11111222' 
TCOON,ioos:station:TCOON:068:1,2013-12-01T06:18:00Z,27.2970,-97.4049,0.0,2.7,213.0,2.8,'11111222,11111222,11111222' 
TCOON,ioos:station:TCOON:068:1,2013-12-01T06:24:00Z,27.2970,-97.4049,0.0,2.7,225.0,3.0,'11111222,11111222,11111222' 
TCOON,ioos:station:TCOON:068:1,2013-12-01T06:30:00Z,27.2970,-97.4049,0.0,2.2,217.0,2.7,'11111222,11111222,11111222' 
TCOON,ioos:station:TCOON:068:1,2013-12-01T06:36:00Z,27.2970,-97.4049,0.0,1.6,247.0,2.1,'11111222,11111222,11111222' 
TCOON,ioos:station:TCOON:068:1,2013-12-01T06:42:00Z,27.2970,-97.4049,0.0,1.9,241.0,2.0,'11111222,11111222,11111222' 
TCOON,ioos:station:TCOON:068:1,2013-12-01T06:48:00Z,27.2970,-97.4049,0.0,2.0,214.0,2.2,'11111222,11111222,11111222' 
TCOON,ioos:station:TCOON:068:1,2013-12-01T06:54:00Z,27.2970,-97.4049,0.0,1.4,213.0,2.0,'11111222,11111222,11111222' 
TCOON,ioos:station:TCOON:068:1,2013-12-01T07:00:00Z,27.2970,-97.4049,0.0,1.6,203.0,1.8,'11111222,11111222,11111222' 
TCOON,ioos:station:TCOON:068:1,2013-12-01T07:06:00Z,27.2970,-97.4049,0.0,1.6,183.0,1.8,'11111222,11111222,11111222' 
TCOON,ioos:station:TCOON:068:1,2013-12-01T07:12:00Z,27.2970,-97.4049,0.0,2.0,173.0,2.3,'11111222,11111222,11111222' 
TCOON,ioos:station:TCOON:068:1,2013-12-01T07:18:00Z,27.2970,-97.4049,0.0,1.8,179.0,2.4,'11111222,11111222,11111222' 
TCOON,ioos:station:TCOON:068:1,2013-12-01T07:24:00Z,27.2970,-97.4049,0.0,1.9,183.0,2.2,'11111222,11111222,11111222' 
TCOON,ioos:station:TCOON:068:1,2013-12-01T07:30:00Z,27.2970,-97.4049,0.0,1.5,187.0,2.0,'11111222,11111222,11111222' 
TCOON,ioos:station:TCOON:068:1,2013-12-01T07:36:00Z,27.2970,-97.4049,0.0,1.4,197.0,1.4,'11111222,11111222,11111222' 
TCOON,ioos:station:TCOON:068:1,2013-12-01T07:42:00Z,27.2970,-97.4049,0.0,0.9,216.0,1.3,'11111222,11111222,11111222' 
TCOON,ioos:station:TCOON:068:1,2013-12-01T07:48:00Z,27.2970,-97.4049,0.0,0.8,225.0,0.9,'11111222,11111222,11111222' 
TCOON,ioos:station:TCOON:068:1,2013-12-01T07:54:00Z,27.2970,-97.4049,0.0,0.6,207.0,0.9,'11111222,11111222,11111222' 
TCOON,ioos:station:TCOON:068:1,2013-12-01T08:00:00Z,27.2970,-97.4049,0.0,0.7,205.0,0.8,'11111222,11111222,11111222' 
TCOON,ioos:station:TCOON:068:1,2013-12-01T08:06:00Z,27.2970,-97.4049,0.0,1.0,183.0,1.2,'11111222,11111222,11111222' 
TCOON,ioos:station:TCOON:068:1,2013-12-01T08:12:00Z,27.2970,-97.4049,0.0,1.4,180.0,1.6,'11111222,11111222,11111222' 
TCOON,ioos:station:TCOON:068:1,2013-12-01T08:18:00Z,27.2970,-97.4049,0.0,1.5,180.0,1.9,'11111222,11111222,11111222' 
TCOON,ioos:station:TCOON:068:1,2013-12-01T08:24:00Z,27.2970,-97.4049,0.0,1.3,181.0,1.8,'11111222,11111222,11111222' 
TCOON,ioos:station:TCOON:068:1,2013-12-01T08:30:00Z,27.2970,-97.4049,0.0,0.7,189.0,1.1,'11111222,11111222,11111222' 
TCOON,ioos:station:TCOON:068:1,2013-12-01T08:36:00Z,27.2970,-97.4049,0.0,0.8,235.0,1.1,'11111222,11111222,11111222' 
TCOON,ioos:station:TCOON:068:1,2013-12-01T08:42:00Z,27.2970,-97.4049,0.0,0.7,246.0,1.5,'11111222,11111222,11111222' 
TCOON,ioos:station:TCOON:068:1,2013-12-01T08:48:00Z,27.2970,-97.4049,0.0,0.8,249.0,1.1,'11111222,11111222,11111222' 
TCOON,ioos:station:TCOON:068:1,2013-12-01T08:54:00Z,27.2970,-97.4049,0.0,1.0,244.0,1.3,'11111222,11111222,11111222' 
TCOON,ioos:station:TCOON:068:1,2013-12-01T09:00:00Z,27.2970,-97.4049,0.0,1.1,251.0,1.7,'11111222,11111222,11111222' 
TCOON,ioos:station:TCOON:068:1,2013-12-01T09:06:00Z,27.2970,-97.4049,0.0,1.1,277.0,1.4,'11111222,11111222,11111222' 
TCOON,ioos:station:TCOON:068:1,2013-12-01T09:12:00Z,27.2970,-97.4049,0.0,0.8,321.0,1.1,'11111222,11111222,11111222' 
TCOON,ioos:station:TCOON:068:1,2013-12-01T09:18:00Z,27.2970,-97.4049,0.0,0.6,13.0,0.7,'11111222,11111222,11111222' 
TCOON,ioos:station:TCOON:068:1,2013-12-01T09:24:00Z,27.2970,-97.4049,0.0,0.6,344.0,1.2,'11111222,11111222,11111222' 
TCOON,ioos:station:TCOON:068:1,2013-12-01T09:30:00Z,27.2970,-97.4049,0.0,0.0,18.0,0.7,'11111222,11111222,11111222' 
TCOON,ioos:station:TCOON:068:1,2013-12-01T09:36:00Z,27.2970,-97.4049,0.0,0.9,175.0,1.2,'11111222,11111222,11111222' 
TCOON,ioos:station:TCOON:068:1,2013-12-01T09:42:00Z,27.2970,-97.4049,0.0,0.9,178.0,1.3,'11111222,11111222,11111222' 
TCOON,ioos:station:TCOON:068:1,2013-12-01T09:48:00Z,27.2970,-97.4049,0.0,0.2,213.0,1.0,'11111222,11111222,11111222' 
TCOON,ioos:station:TCOON:068:1,2013-12-01T09:54:00Z,27.2970,-97.4049,0.0,1.6,1.0,1.8,'11111222,11111222,11111222' 
TCOON,ioos:station:TCOON:068:1,2013-12-01T10:00:00Z,27.2970,-97.4049,0.0,1.2,42.0,1.9,'11111222,11111222,11111222' 
TCOON,ioos:station:TCOON:068:1,2013-12-01T10:06:00Z,27.2970,-97.4049,0.0,0.9,75.0,1.3,'11111222,11111222,11111222' 
TCOON,ioos:station:TCOON:068:1,2013-12-01T10:12:00Z,27.2970,-97.4049,0.0,0.4,76.0,1.0,'11111222,11111222,11111222' 
TCOON,ioos:station:TCOON:068:1,2013-12-01T10:18:00Z,27.2970,-97.4049,0.0,0.5,76.0,0.6,'11111222,11111222,11111222' 
TCOON,ioos:station:TCOON:068:1,2013-12-01T10:24:00Z,27.2970,-97.4049,0.0,0.6,126.0,0.7,'11111222,11111222,11111222' 
TCOON,ioos:station:TCOON:068:1,2013-12-01T10:30:00Z,27.2970,-97.4049,0.0,0.8,139.0,0.8,'11111222,11111222,11111222' 
TCOON,ioos:station:TCOON:068:1,2013-12-01T10:36:00Z,27.2970,-97.4049,0.0,0.8,140.0,0.9,'11111222,11111222,11111222' 
TCOON,ioos:station:TCOON:068:1,2013-12-01T10:42:00Z,27.2970,-97.4049,0.0,0.8,140.0,0.8,'11111222,11111222,11111222' 
TCOON,ioos:station:TCOON:068:1,2013-12-01T10:48:00Z,27.2970,-97.4049,0.0,0.9,137.0,0.9,'11111222,11111222,11111222' 
TCOON,ioos:station:TCOON:068:1,2013-12-01T10:54:00Z,27.2970,-97.4049,0.0,1.4,125.0,1.4,'11111222,11111222,11111222' 
TCOON,ioos:station:TCOON:068:1,2013-12-01T11:00:00Z,27.2970,-97.4049,0.0,1.3,121.0,1.5,'11111222,11111222,11111222' 
TCOON,ioos:station:TCOON:068:1,2013-12-01T11:06:00Z,27.2970,-97.4049,0.0,1.2,121.0,1.3,'11111222,11111222,11111222' 
TCOON,ioos:station:TCOON:068:1,2013-12-01T11:12:00Z,27.2970,-97.4049,0.0,1.1,104.0,1.2,'11111222,11111222,11111222' 
TCOON,ioos:station:TCOON:068:1,2013-12-01T11:18:00Z,27.2970,-97.4049,0.0,2.3,95.0,2.4,'11111222,11111222,11111222' 
TCOON,ioos:station:TCOON:068:1,2013-12-01T11:24:00Z,27.2970,-97.4049,0.0,1.9,94.0,2.4,'11111222,11111222,11111222' 
TCOON,ioos:station:TCOON:068:1,2013-12-01T11:30:00Z,27.2970,-97.4049,0.0,1.8,98.0,1.8,'11111222,11111222,11111222' 
TCOON,ioos:station:TCOON:068:1,2013-12-01T11:36:00Z,27.2970,-97.4049,0.0,1.7,96.0,1.9,'11111222,11111222,11111222' 
TCOON,ioos:station:TCOON:068:1,2013-12-01T11:42:00Z,27.2970,-97.4049,0.0,1.6,90.0,1.7,'11111222,11111222,11111222' 
TCOON,ioos:station:TCOON:068:1,2013-12-01T11:48:00Z,27.2970,-97.4049,0.0,1.2,94.0,1.5,'11111222,11111222,11111222' 
TCOON,ioos:station:TCOON:068:1,2013-12-01T11:54:00Z,27.2970,-97.4049,0.0,1.2,94.0,1.3,'11111222,11111222,11111222' 
TCOON,ioos:station:TCOON:068:1,2013-12-01T12:00:00Z,27.2970,-97.4049,0.0,1.1,91.0,1.2,'11111222,11111222,11111222' 
TCOON,ioos:station:TCOON:068:1,2013-12-01T12:06:00Z,27.2970,-97.4049,0.0,1.7,101.0,1.7,'11111222,11111222,11111222' 
TCOON,ioos:station:TCOON:068:1,2013-12-01T12:12:00Z,27.2970,-97.4049,0.0,1.9,105.0,1.9,'11111222,11111222,11111222' 
TCOON,ioos:station:TCOON:068:1,2013-12-01T12:18:00Z,27.2970,-97.4049,0.0,1.4,112.0,1.8,'11111222,11111222,11111222' 
TCOON,ioos:station:TCOON:068:1,2013-12-01T12:24:00Z,27.2970,-97.4049,0.0,1.6,105.0,1.6,'11111222,11111222,11111222' 
TCOON,ioos:station:TCOON:068:1,2013-12-01T12:30:00Z,27.2970,-97.4049,0.0,1.9,106.0,1.9,'11111222,11111222,11111222' 
TCOON,ioos:station:TCOON:068:1,2013-12-01T12:36:00Z,27.2970,-97.4049,0.0,1.9,107.0,1.9,'11111222,11111222,11111222' 
TCOON,ioos:station:TCOON:068:1,2013-12-01T12:42:00Z,27.2970,-97.4049,0.0,2.1,115.0,2.1,'11111222,11111222,11111222' 
TCOON,ioos:station:TCOON:068:1,2013-12-01T12:48:00Z,27.2970,-97.4049,0.0,2.1,112.0,2.1,'11111222,11111222,11111222' 
TCOON,ioos:station:TCOON:068:1,2013-12-01T12:54:00Z,27.2970,-97.4049,0.0,1.6,117.0,2.1,'11111222,11111222,11111222' 
TCOON,ioos:station:TCOON:068:1,2013-12-01T13:00:00Z,27.2970,-97.4049,0.0,1.9,127.0,2.0,'11111222,11111222,11111222' 
TCOON,ioos:station:TCOON:068:1,2013-12-01T13:06:00Z,27.2970,-97.4049,0.0,1.7,128.0,2.0,'11111222,11111222,11111222' 
TCOON,ioos:station:TCOON:068:1,2013-12-01T13:12:00Z,27.2970,-97.4049,0.0,1.5,133.0,1.7,'11111222,11111222,11111222' 
TCOON,ioos:station:TCOON:068:1,2013-12-01T13:18:00Z,27.2970,-97.4049,0.0,1.3,130.0,1.5,'11111222,11111222,11111222' 
TCOON,ioos:station:TCOON:068:1,2013-12-01T13:24:00Z,27.2970,-97.4049,0.0,1.2,127.0,1.7,'11111222,11111222,11111222' 
TCOON,ioos:station:TCOON:068:1,2013-12-01T13:30:00Z,27.2970,-97.4049,0.0,1.3,119.0,1.3,'11111222,11111222,11111222' 
TCOON,ioos:station:TCOON:068:1,2013-12-01T13:36:00Z,27.2970,-97.4049,0.0,1.4,113.0,1.4,'11111222,11111222,11111222' 
TCOON,ioos:station:TCOON:068:1,2013-12-01T13:42:00Z,27.2970,-97.4049,0.0,1.8,107.0,1.8,'11111222,11111222,11111222' 
TCOON,ioos:station:TCOON:068:1,2013-12-01T13:48:00Z,27.2970,-97.4049,0.0,1.9,107.0,2.0,'11111222,11111222,11111222' 
TCOON,ioos:station:TCOON:068:1,2013-12-01T13:54:00Z,27.2970,-97.4049,0.0,1.6,108.0,1.9,'11111222,11111222,11111222' 
TCOON,ioos:station:TCOON:068:1,2013-12-01T14:00:00Z,27.2970,-97.4049,0.0,1.4,109.0,1.6,'11111222,11111222,11111222' 
TCOON,ioos:station:TCOON:068:1,2013-12-01T14:06:00Z,27.2970,-97.4049,0.0,1.0,115.0,1.3,'11111222,11111222,11111222' 
TCOON,ioos:station:TCOON:068:1,2013-12-01T14:12:00Z,27.2970,-97.4049,0.0,1.1,123.0,1.2,'11111222,11111222,11111222' 
TCOON,ioos:station:TCOON:068:1,2013-12-01T14:18:00Z,27.2970,-97.4049,0.0,0.5,155.0,1.0,'11111222,11111222,11111222' 
TCOON,ioos:station:TCOON:068:1,2013-12-01T14:24:00Z,27.2970,-97.4049,0.0,1.1,163.0,1.4,'11111222,11111222,11111222' 
TCOON,ioos:station:TCOON:068:1,2013-12-01T14:30:00Z,27.2970,-97.4049,0.0,1.0,171.0,1.1,'11111222,11111222,11111222' 
TCOON,ioos:station:TCOON:068:1,2013-12-01T14:36:00Z,27.2970,-97.4049,0.0,0.9,164.0,1.1,'11111222,11111222,11111222' 
TCOON,ioos:station:TCOON:068:1,2013-12-01T14:42:00Z,27.2970,-97.4049,0.0,0.7,156.0,1.1,'11111222,11111222,11111222' 
TCOON,ioos:station:TCOON:068:1,2013-12-01T14:48:00Z,27.2970,-97.4049,0.0,0.7,176.0,0.9,'11111222,11111222,11111222' 
TCOON,ioos:station:TCOON:068:1,2013-12-01T14:54:00Z,27.2970,-97.4049,0.0,0.5,178.0,0.7,'11111222,11111222,11111222' 
TCOON,ioos:station:TCOON:068:1,2013-12-01T15:00:00Z,27.2970,-97.4049,0.0,0.6,178.0,0.7,'11111222,11111222,11111222' 
TCOON,ioos:station:TCOON:068:1,2013-12-01T15:06:00Z,27.2970,-97.4049,0.0,0.7,182.0,0.8,'11111222,11111222,11111222' 
TCOON,ioos:station:TCOON:068:1,2013-12-01T15:12:00Z,27.2970,-97.4049,0.0,1.0,179.0,1.2,'11111222,11111222,11111222' 
TCOON,ioos:station:TCOON:068:1,2013-12-01T15:18:00Z,27.2970,-97.4049,0.0,0.9,175.0,1.1,'11111222,11111222,11111222' 
TCOON,ioos:station:TCOON:068:1,2013-12-01T15:24:00Z,27.2970,-97.4049,0.0,1.1,170.0,1.3,'11111222,11111222,11111222' 
TCOON,ioos:station:TCOON:068:1,2013-12-01T15:30:00Z,27.2970,-97.4049,0.0,1.1,180.0,1.4,'11111222,11111222,11111222' 
TCOON,ioos:station:TCOON:068:1,2013-12-01T15:36:00Z,27.2970,-97.4049,0.0,1.0,207.0,1.3,'11111222,11111222,11111222' 
TCOON,ioos:station:TCOON:068:1,2013-12-01T15:42:00Z,27.2970,-97.4049,0.0,1.2,209.0,1.6,'11111222,11111222,11111222' 
TCOON,ioos:station:TCOON:068:1,2013-12-01T15:48:00Z,27.2970,-97.4049,0.0,0.9,242.0,1.1,'11111222,11111222,11111222' 
TCOON,ioos:station:TCOON:068:1,2013-12-01T15:54:00Z,27.2970,-97.4049,0.0,0.6,254.0,1.0,'11111222,11111222,11111222' 
TCOON,ioos:station:TCOON:068:1,2013-12-01T16:00:00Z,27.2970,-97.4049,0.0,0.7,230.0,1.0,'11111222,11111222,11111222' 
TCOON,ioos:station:TCOON:068:1,2013-12-01T16:06:00Z,27.2970,-97.4049,0.0,1.1,197.0,1.4,'11111222,11111222,11111222' 
TCOON,ioos:station:TCOON:068:1,2013-12-01T16:12:00Z,27.2970,-97.4049,0.0,1.4,189.0,1.5,'11111222,11111222,11111222' 
TCOON,ioos:station:TCOON:068:1,2013-12-01T16:18:00Z,27.2970,-97.4049,0.0,2.0,191.0,2.3,'11111222,11111222,11111222' 
TCOON,ioos:station:TCOON:068:1,2013-12-01T16:24:00Z,27.2970,-97.4049,0.0,1.5,196.0,2.2,'11111222,11111222,11111222' 
TCOON,ioos:station:TCOON:068:1,2013-12-01T16:30:00Z,27.2970,-97.4049,0.0,1.7,199.0,2.2,'11111222,11111222,11111222' 
TCOON,ioos:station:TCOON:068:1,2013-12-01T16:36:00Z,27.2970,-97.4049,0.0,2.5,187.0,2.7,'11111222,11111222,11111222' 
TCOON,ioos:station:TCOON:068:1,2013-12-01T16:42:00Z,27.2970,-97.4049,0.0,2.9,185.0,3.1,'11111222,11111222,11111222' 
TCOON,ioos:station:TCOON:068:1,2013-12-01T16:48:00Z,27.2970,-97.4049,0.0,2.9,188.0,3.2,'11111222,11111222,11111222' 
TCOON,ioos:station:TCOON:068:1,2013-12-01T16:54:00Z,27.2970,-97.4049,0.0,3.0,187.0,3.0,'11111222,11111222,11111222' 
TCOON,ioos:station:TCOON:068:1,2013-12-01T17:00:00Z,27.2970,-97.4049,0.0,3.1,186.0,3.3,'11111222,11111222,11111222' 
TCOON,ioos:station:TCOON:068:1,2013-12-01T17:06:00Z,27.2970,-97.4049,0.0,2.9,190.0,3.3,'11111222,11111222,11111222' 
TCOON,ioos:station:TCOON:068:1,2013-12-01T17:12:00Z,27.2970,-97.4049,0.0,2.8,191.0,3.1,'11111222,11111222,11111222' 
TCOON,ioos:station:TCOON:068:1,2013-12-01T17:18:00Z,27.2970,-97.4049,0.0,3.1,188.0,3.2,'11111222,11111222,11111222' 
TCOON,ioos:station:TCOON:068:1,2013-12-01T17:24:00Z,27.2970,-97.4049,0.0,3.1,183.0,3.5,'11111222,11111222,11111222' 
TCOON,ioos:station:TCOON:068:1,2013-12-01T17:30:00Z,27.2970,-97.4049,0.0,3.0,182.0,3.3,'11111222,11111222,11111222' 
TCOON,ioos:station:TCOON:068:1,2013-12-01T17:36:00Z,27.2970,-97.4049,0.0,3.1,181.0,3.5,'11111222,11111222,11111222' 
TCOON,ioos:station:TCOON:068:1,2013-12-01T17:42:00Z,27.2970,-97.4049,0.0,2.8,179.0,3.6,'11111222,11111222,11111222' 
TCOON,ioos:station:TCOON:068:1,2013-12-01T17:48:00Z,27.2970,-97.4049,0.0,3.2,181.0,3.9,'11111222,11111222,11111222' 
TCOON,ioos:station:TCOON:068:1,2013-12-01T17:54:00Z,27.2970,-97.4049,0.0,3.4,181.0,4.0,'11111222,11111222,11111222' 
TCOON,ioos:station:TCOON:068:1,2013-12-01T18:00:00Z,27.2970,-97.4049,0.0,3.4,182.0,4.2,'11111222,11111222,11111222' 
TCOON,ioos:station:TCOON:068:1,2013-12-01T18:06:00Z,27.2970,-97.4049,0.0,4.0,183.0,4.4,'11111222,11111222,11111222' 
TCOON,ioos:station:TCOON:068:1,2013-12-01T18:12:00Z,27.2970,-97.4049,0.0,4.1,179.0,4.9,'11111222,11111222,11111222' 
TCOON,ioos:station:TCOON:068:1,2013-12-01T18:18:00Z,27.2970,-97.4049,0.0,3.9,175.0,4.7,'11111222,11111222,11111222' 
TCOON,ioos:station:TCOON:068:1,2013-12-01T18:24:00Z,27.2970,-97.4049,0.0,4.1,173.0,4.9,'11111222,11111222,11111222' 
TCOON,ioos:station:TCOON:068:1,2013-12-01T18:30:00Z,27.2970,-97.4049,0.0,4.0,167.0,5.2,'11111222,11111222,11111222' 
TCOON,ioos:station:TCOON:068:1,2013-12-01T18:36:00Z,27.2970,-97.4049,0.0,4.3,166.0,5.2,'11111222,11111222,11111222' 
TCOON,ioos:station:TCOON:068:1,2013-12-01T18:42:00Z,27.2970,-97.4049,0.0,4.5,166.0,5.2,'11111222,11111222,11111222' 
TCOON,ioos:station:TCOON:068:1,2013-12-01T18:48:00Z,27.2970,-97.4049,0.0,4.4,168.0,5.4,'11111222,11111222,11111222' 
TCOON,ioos:station:TCOON:068:1,2013-12-01T18:54:00Z,27.2970,-97.4049,0.0,5.3,167.0,6.1,'11111222,11111222,11111222' 
TCOON,ioos:station:TCOON:068:1,2013-12-01T19:00:00Z,27.2970,-97.4049,0.0,4.3,162.0,6.4,'11111222,11111222,11111222' 
TCOON,ioos:station:TCOON:068:1,2013-12-01T19:06:00Z,27.2970,-97.4049,0.0,4.6,163.0,5.5,'11111222,11111222,11111222' 
TCOON,ioos:station:TCOON:068:1,2013-12-01T19:12:00Z,27.2970,-97.4049,0.0,4.5,157.0,5.3,'11111222,11111222,11111222' 
TCOON,ioos:station:TCOON:068:1,2013-12-01T19:18:00Z,27.2970,-97.4049,0.0,4.0,159.0,4.9,'11111222,11111222,11111222' 
TCOON,ioos:station:TCOON:068:1,2013-12-01T19:24:00Z,27.2970,-97.4049,0.0,5.1,153.0,6.4,'11111222,11111222,11111222' 
TCOON,ioos:station:TCOON:068:1,2013-12-01T19:30:00Z,27.2970,-97.4049,0.0,4.8,152.0,6.7,'11111222,11111222,11111222' 
TCOON,ioos:station:TCOON:068:1,2013-12-01T19:36:00Z,27.2970,-97.4049,0.0,4.3,154.0,5.6,'11111222,11111222,11111222' 
TCOON,ioos:station:TCOON:068:1,2013-12-01T19:42:00Z,27.2970,-97.4049,0.0,5.0,154.0,6.0,'11111222,11111222,11111222' 
TCOON,ioos:station:TCOON:068:1,2013-12-01T19:48:00Z,27.2970,-97.4049,0.0,6.0,156.0,6.7,'11111222,11111222,11111222' 
TCOON,ioos:station:TCOON:068:1,2013-12-01T19:54:00Z,27.2970,-97.4049,0.0,5.0,151.0,6.3,'11111222,11111222,11111222' 
TCOON,ioos:station:TCOON:068:1,2013-12-01T20:00:00Z,27.2970,-97.4049,0.0,4.8,153.0,6.3,'11111222,11111222,11111222' 
TCOON,ioos:station:TCOON:068:1,2013-12-01T20:06:00Z,27.2970,-97.4049,0.0,4.8,154.0,5.9,'11111222,11111222,11111222' 
TCOON,ioos:station:TCOON:068:1,2013-12-01T20:12:00Z,27.2970,-97.4049,0.0,5.6,149.0,6.7,'11111222,11111222,11111222' 
TCOON,ioos:station:TCOON:068:1,2013-12-01T20:18:00Z,27.2970,-97.4049,0.0,5.0,150.0,6.7,'11111222,11111222,11111222' 